Home   Weather   São Paulo   Past weeks

Flag for Brazil Past Weather in São Paulo, São Paulo, Brazil — Yesterday and Last 2 Weeks

Now
79 °F

Partly sunny.


Feels Like: 80 °F
Forecast: 62 / 78 °F
Wind: 15 mph from Northwest

Location: Sao Paulo Airport

Current Time: Dec 5, 2016 at 2:57:27 pm

Latest Report: Dec 5, 2016 at 2:00 pm


Visibility: N/A

Pressure: 29.83 "Hg (27.33 "Hg at 765m altitude)

Humidity: 51%

Dew Point: 59 °F

Location of São PauloLocation

Past Weather in São Paulo — Graph

°F

São Paulo Temperature Yesterday

Maximum temperature yesterday: 84 °F (at 3:00 pm)
Minimum temperature yesterday: 61 °F (at 10:00 pm)
Average temperature yesterday: 71 °F

High & Low Weather Summary for the Past Weeks

 TemperatureHumidityPressure
High86 °F (Nov 27, 2:00 pm)94% (Nov 23, 11:00 pm)30.24 "Hg (Nov 23, 11:00 pm)
Low57 °F (Nov 21, 5:00 am)33% (Nov 21, 8:00 pm)29.74 "Hg (Dec 4, 5:00 am)
Average69 °F74%30.04 "Hg
* Reported Nov 20 1:00 pm — Dec 5 1:00 pm, São Paulo, Weather by CustomWeather, © 2016

Note: Actual official high and low records may vary slightly from our data, if they occured in-between our weather recording intervals... More about our weather records

Advertising

São Paulo Weather History for the Previous 24 Hours

Scroll right to see more
 ConditionsComfort  
Time TempWeatherWind HumidityBarometerVisibility
1:00 pm
Mon, Dec 5
77 °FPartly sunny.13 mph57%29.83 "HgN/A
12:00 pm73 °FPartly sunny.9 mph65%29.86 "HgN/A
11:00 am72 °FPartly sunny.8 mph65%29.89 "HgN/A
10:00 am68 °FScattered clouds.6 mph69%29.89 "HgN/A
9:00 am66 °FPartly sunny.5 mph73%29.89 "HgN/A
8:00 am63 °FBroken clouds.6 mph77%29.89 "HgN/A
7:00 am61 °FBroken clouds.5 mph83%29.86 "HgN/A
6:00 am59 °FPartly cloudy.7 mph94%29.83 "HgN/A
5:01 am59 °FLight rain. Fog.6 mph94%29.80 "Hg2 mi
4:00 am59 °FDrizzle. Overcast.5 mph94%29.80 "Hg4 mi
3:00 am59 °FMostly cloudy.8 mph88%29.83 "HgN/A
2:00 am61 °FOvercast.7 mph88%29.83 "HgN/A
1:00 am61 °FOvercast.6 mph88%29.86 "HgN/A
12:00 am61 °FMostly cloudy.12 mph88%29.86 "HgN/A
11:04 pm
Sun, Dec 4
61 °FOvercast.10 mph88%29.86 "HgN/A
10:00 pm61 °FThundershowers. Fog.10 mph88%29.86 "Hg3 mi
9:00 pm63 °FThundershowers. Fog.16 mph88%29.83 "Hg2 mi
8:00 pm64 °FMostly cloudy.13 mph83%29.80 "Hg6 mi
7:00 pm66 °FPartly sunny.12 mph83%29.77 "HgN/A
6:00 pm68 °FPartly sunny.14 mph78%29.77 "HgN/A
5:00 pm70 °FBroken clouds.18 mph73%29.74 "HgN/A
4:00 pm77 °FScattered clouds.16 mph61%29.74 "HgN/A
3:00 pm84 °FScattered clouds.14 mph37%29.74 "HgN/A
2:00 pm82 °FPartly sunny.16 mph40%29.77 "HgN/A
Weather by CustomWeather, © 2016

See weather overviewHow to use our weather pages